strmgageid,date_time,avg_discharge,stddev_discharge,min_discharge,max_discharge,n_discharge,tdaily_discharge,avg_temp,stddev_temp,min_temp,max_temp,n_temp,avg_cond,stddev_cond,min_cond,max_cond,n_cond
canada_f1,11/24/90,54.7,50.9,2.27,148.69,94,4628196,,,,,0,,,,,0
canada_f1,11/25/90,93.3,74.4,10.42,217.25,96,8062749,,,,,0,,,,,0
canada_f1,11/26/90,118.6,79.7,30.95,256.69,96,10245330,,,,,0,,,,,0
canada_f1,11/27/90,114.1,67.5,43.92,230.13,96,9854658,,,,,0,,,,,0
canada_f1,11/28/90,54.4,22.1,21.52,102.03,96,4701411,,,,,0,,,,,0
canada_f1,11/29/90,56.4,37.4,6.82,120.86,96,4870179,,,,,0,,,,,0
canada_f1,11/30/90,11.7,7,0.85,25.66,96,1006857,,,,,0,,,,,0
canada_f1,12/1/90,0.3,0.3,0,1.13,96,27522,,,,,0,,,,,0
canada_f1,12/2/90,0,0,0,0,96,0,,,,,0,,,,,0
canada_f1,12/3/90,0,0,0,0,96,0,,,,,0,,,,,0
canada_f1,12/4/90,2.8,3.9,0,10.42,96,242469,3.7,1.4,0.6,5.5,95,37.1,14.6,19.5,53.1,95
canada_f1,12/5/90,10.9,13.9,0,40.78,96,944352,3.4,2.3,0,7.6,96,23.5,4.4,18.1,31.5,96
canada_f1,12/6/90,19.5,22.8,0,65.41,96,1682964,3.8,2.8,0,8.2,96,21.3,1.8,19.1,24.5,96
canada_f1,12/7/90,7.6,8.3,0,23.98,96,654957,3,2.2,0,6.7,96,22.8,1.8,18.8,26.8,96
canada_f1,12/8/90,3.4,3.5,0,9.15,96,297855,3.2,2.3,0.6,7.4,96,25.9,2.6,20.1,30.5,96
canada_f1,12/9/90,38.8,43.6,0,136.06,96,3348054,3.8,3.1,0.5,9.4,96,25.6,3.3,21.1,30.5,96
canada_f1,12/10/90,22,18.1,2.83,50.4,96,1899693,4,2.8,0,9.4,96,24.6,1.3,22.5,27.1,96
canada_f1,12/11/90,81.3,71.1,7.96,202.83,96,7020567,4.9,2.9,1.1,9.7,96,24,1.6,22.1,27.5,96
canada_f1,12/12/90,64.2,37.1,23.13,153.53,96,5542740,4.1,2,1.1,7.9,96,25.2,1.6,22.1,27.5,96
canada_f1,12/13/90,87.9,56.7,21.52,202.83,96,7597242,4.5,2.8,0.4,8.5,96,24.1,2.1,21.1,27.1,96
canada_f1,12/14/90,48.1,13.9,30.02,70.28,96,4158414,3.7,2.7,0.4,9.7,96,25.7,1,23.1,27.8,96
canada_f1,12/15/90,75.3,46.4,26.5,168.32,96,6509592,5.4,2.9,1.2,10.1,96,25.4,1,22.4,26.5,96
canada_f1,12/16/90,124.5,60.5,56.01,256.69,96,10755126,5,2.7,1.7,10.8,96,22.4,1.5,20.1,25.1,96
canada_f1,12/17/90,165.6,79.1,59.47,296.31,96,14305500,5.2,2.8,1.4,10.4,96,21,1.5,12.1,24.1,96
canada_f1,12/18/90,116.5,20.1,88.29,165,96,10069317,3.8,2.1,0.5,7.9,96,18.7,0.7,17.8,20.5,96
canada_f1,12/19/90,54.9,17.3,31.88,93.7,96,4742118,2.8,1.8,0.4,7.4,96,17.6,0.7,16.5,18.5,96
canada_f1,12/20/90,80.6,45.8,22.34,163.33,96,6963921,5.3,2.5,2.1,10.9,96,17.9,1.7,14.4,21.1,96
canada_f1,12/21/90,164.1,85.5,57.06,300.53,96,14180274,5.3,2.5,1.5,8.6,96,16.7,0.8,14.8,18.5,96
canada_f1,12/22/90,162.3,57.7,101.94,275.95,96,14021073,4.2,2.4,0.8,8,96,15.4,1.1,13.4,18.1,96
canada_f1,12/23/90,134.4,45.2,84.27,242.08,96,11609568,4.7,2.7,0.6,9,96,16.2,1.5,13.4,19.1,96
canada_f1,12/24/90,48.3,19.2,21.44,97.75,96,4174749,2.3,0.8,1,3.8,96,14.4,0.9,12.8,15.4,96
canada_f1,12/25/90,136.5,106.8,13.88,313.41,96,11791683,6.4,3.4,0.7,11.6,96,16.1,1.5,12.7,19.5,96
canada_f1,12/26/90,333.1,194.6,107.58,640.56,96,28775745,5.2,2.3,1.9,8.4,96,13.5,1.1,11.4,15.8,96
canada_f1,12/27/90,121.3,45.9,44.88,226.53,96,10477647,2.7,1.2,0.7,4.9,96,16.1,1.3,13.7,19.1,96
canada_f1,12/28/90,77,45.8,27.33,163.98,96,6654303,4.4,2.5,0.2,8.1,96,18.8,0.5,17.8,19.1,96
canada_f1,12/29/90,132.7,77.9,36.7,281.95,96,11467701,4.8,2.2,1.3,8.8,96,19.8,1.5,17.8,25.5,96
canada_f1,12/30/90,257.4,154.4,58.22,481.7,96,22237038,5.5,2.7,0.9,9,96,23.5,3.7,19.8,29.5,96
canada_f1,12/31/90,330.6,145.9,178.71,640.56,96,28561212,4.5,2.6,1.2,8.6,96,19.8,2.5,14.8,23.5,96
canada_f1,1/1/91,263.3,114.4,134.5,481.7,96,22745223,4.4,2.3,1.2,8,96,17.2,1.2,14.1,19.5,96
canada_f1,1/2/91,186.6,74.9,114.29,392.59,96,16118433,4.2,2.4,0.3,8.8,96,17.9,0.6,16.8,19.5,96
canada_f1,1/3/91,94.4,8.8,71.44,117.83,96,8159454,3.7,1.5,1.1,6,96,21.1,1,19.5,22.8,96
canada_f1,1/4/91,66.9,22.9,39.7,116.04,96,5782752,5,1.8,2.6,8.6,96,21.2,1,18.1,23.5,96
canada_f1,1/5/91,92.6,73.4,20.61,258.51,96,8001216,4.9,3,0.9,10,96,20.3,1.5,18.1,23.5,96
canada_f1,1/6/91,62.4,21.6,31.88,103.33,96,5391810,4.7,2.1,1.5,8.5,96,19.1,0.9,18.1,20.8,96
canada_f1,1/7/91,97.3,75.7,15.29,222.88,96,8409024,5.6,3.4,0.9,10.8,96,19.8,1.7,18.1,31.5,96
canada_f1,1/8/91,158.9,90.8,48.11,306.92,96,13729608,5.5,2.6,1.5,9,96,18.1,,18.1,18.1,1
canada_f1,1/9/91,67.4,34.5,21.44,130.71,96,5819247,1.8,1,0.3,4,96,18.6,2,16.4,21.8,95
canada_f1,1/10/91,87.6,66.5,9.17,201.75,96,7568865,4.6,3.2,0.2,8.9,96,21.2,2,18.4,24.5,96
canada_f1,1/11/91,138.4,90.2,23.9,281.95,96,11959632,5.6,2.4,1.8,8.7,96,19.1,0.5,17.8,20.5,96
canada_f1,1/12/91,194.9,86.8,95,340.63,96,16841574,4.8,2.4,1.3,8.1,96,18.5,0.8,16.4,19.8,96
canada_f1,1/13/91,117.8,56.8,22.23,247.42,96,10177740,2,1.9,0,6.7,96,17.2,1.2,15.8,19.8,96
canada_f1,1/14/91,19.9,6.4,5.8,30.02,96,1718181,0.7,0.6,0,2,96,18.8,1.6,15.8,21.8,96
canada_f1,1/15/91,11.4,7.9,3.6,30.95,96,984771,2.2,1.9,0.2,6.7,96,22.4,2.1,19.1,27.2,96
canada_f1,1/16/91,56.7,57.7,3.2,152.86,96,4898520,4.1,3.1,0,8.3,96,21.9,2.2,19.1,25.8,96
canada_f1,1/17/91,83.8,72.5,6.31,201.75,96,7239906,4.8,3.1,0.2,8.9,96,20.9,2,17.8,24.5,96
canada_f1,1/18/91,86.1,59.4,22.23,191.67,96,7440318,5,2.5,0.9,8.9,96,20.2,1.4,18.1,23.1,96
canada_f1,1/19/91,34.4,8.1,18.26,62.92,96,2973906,2.5,1.4,0.1,5.5,96,19.2,0.8,18.1,20.8,96
canada_f1,1/20/91,14.5,5.2,8.55,24.75,96,1248993,2.8,2.1,0,6.3,96,20.9,2,18.5,24.5,96
canada_f1,1/21/91,27.8,19.8,5.8,61.73,96,2404395,3.7,2.4,0,8.1,96,22.5,1.8,19.8,25.2,96
canada_f1,1/22/91,46.1,42.1,4.81,128.84,96,3980061,1.3,,1.3,1.3,1,23.8,,23.8,23.8,1
canada_f1,1/23/91,60.1,49.6,6.31,130.71,96,5191218,,,,,0,,,,,0
canada_f1,1/24/91,7.9,6.5,1.7,29.11,96,685359,,,,,0,,,,,0
canada_f1,1/25/91,2.1,0.8,1.42,3.2,96,185589,,,,,0,,,,,0
canada_f1,1/26/91,25.6,30.6,1.42,100.53,96,2214450,,,,,0,,,,,0
canada_f1,1/27/91,55.5,55.7,3.99,147.47,96,4799250,,,,,0,,,,,0
canada_f1,1/28/91,56.4,54.1,4.39,147.47,96,4868694,,,,,0,,,,,0
canada_f1,1/29/91,49.3,43.8,7.96,125.13,96,4259286,,,,,0,,,,,0
canada_f1,1/30/91,20.3,15.8,3.31,51.4,96,1752381,,,,,0,,,,,0
canada_f1,1/31/91,10.8,9.2,2.27,30.02,96,936729,,,,,0,,,,,0
canada_f1,2/1/91,23.8,28.2,1.98,93.64,96,2054268,,,,,0,,,,,0
canada_f1,2/2/91,27,30.7,2.83,93.64,96,2329947,,,,,0,,,,,0
canada_f1,2/3/91,3.6,1.2,1.7,6.31,96,314766,,,,,0,,,,,0
canada_f1,2/4/91,4.9,5.4,0.28,22.23,96,427284,,,,,0,,,,,0
canada_f1,2/5/91,11.2,12,1.7,37.69,96,967005,,,,,0,,,,,0
canada_f1,2/6/91,4.2,2.8,2.04,13.17,96,363762,,,,,0,,,,,0
canada_f1,2/7/91,0.6,0.7,0,1.98,96,48267,,,,,0,,,,,0
canada_f1,2/8/91,0,0,0,0,96,0,,,,,0,,,,,0
canada_f1,2/9/91,2,3.2,0,9.83,96,175383,,,,,0,,,,,0
canada_f1,2/10/91,3.5,4.4,0,12.49,96,304506,,,,,0,,,,,0
canada_f1,2/11/91,9.9,12.3,0,35.71,96,857502,,,,,0,,,,,0
canada_f1,2/12/91,8.8,8.5,2.55,31.88,96,759222,,,,,0,,,,,0
canada_f1,2/13/91,3.2,0.8,1.98,5.3,96,278100,,,,,0,,,,,0
canada_f1,2/14/91,0.6,0.7,0,1.98,96,55359,,,,,0,,,,,0
canada_f1,2/15/91,1.2,1.9,0,6.82,96,104292,,,,,0,,,,,0
canada_f1,2/16/91,0,,0,0,1,0,,,,,0,,,,,0
canada_f1,11/26/91,1.5,2.5,0,11.81,95,124308,,,,,0,,,,,0
canada_f1,11/27/91,0.1,0.2,0,0.85,96,10980,,,,,0,,,,,0
canada_f1,11/28/91,3.7,5.2,0,16.03,96,316539,,,,,0,,,,,0
canada_f1,11/29/91,6.6,11.6,0,70.2,96,567882,,,,,0,,,,,0
canada_f1,11/30/91,5.6,4.1,1.42,13.88,96,480114,1.2,1.3,0.1,3.8,95,52,4.2,41.4,58.3,95
canada_f1,12/1/91,10,9.8,1.13,29.11,96,866268,1.6,1.8,0.1,5,96,52.1,6.3,42.1,63.9,96
canada_f1,12/2/91,4.9,3.7,1.7,11.81,96,425610,1.8,2,0.1,5.7,96,48.6,4,42.4,56.1,96
canada_f1,12/3/91,2.4,1,0.85,5.8,96,206307,0.7,0.7,0.1,2.3,96,46.3,2.8,40.2,50.6,96
canada_f1,12/4/91,12.3,13.9,0.57,42.79,96,1064385,1.9,2.2,0.1,6.2,96,49.4,5.9,41.2,63.2,96
canada_f1,12/5/91,3.7,1.5,1.7,6.82,96,319500,1.8,1.5,0.1,5,96,49,5.1,41.9,57.5,96
canada_f1,12/6/91,27.9,22.9,1.98,59.38,96,2414295,3.4,2.1,0.6,6.5,96,52,1.9,49.2,57.2,96
canada_f1,12/7/91,77.4,53.2,13.17,158.38,96,6691095,4.4,2.3,0.6,7.4,96,51.4,4.5,45.2,58.8,96
canada_f1,12/8/91,83.3,47.3,30.95,169.7,96,7194492,3.4,2.4,0.6,8.3,96,42.9,3.4,38.4,48.2,96
canada_f1,12/9/91,180.2,106.4,60.54,354.92,96,15565635,4.4,2.9,0.2,8.3,96,34.1,4.4,28,40.4,96
canada_f1,12/10/91,228.7,109,114.29,433.87,96,19762047,3.7,2.5,0.7,7.4,96,25.6,2.8,21.9,29.4,96
canada_f1,12/11/91,223.1,113.5,96.39,408.44,96,19271700,4.1,2.5,0.6,7.6,96,21.6,1.3,19.7,23.2,96
canada_f1,12/12/91,184.4,62.7,110.75,326.75,96,15929829,3.9,1.8,1.2,7,96,19.3,0.5,18.7,20.5,96
canada_f1,12/13/91,95.8,18,53.63,142.21,96,8278452,2.5,1,0.5,4.2,96,18.3,0.9,16.6,19.8,96
canada_f1,12/14/91,64.6,29,31.88,110.75,96,5581251,3.7,2.3,0.5,7,96,20.4,1.8,17.8,23,96
canada_f1,12/15/91,139.1,83.1,41.74,288.04,96,12021354,4.1,2.5,0.5,7.5,96,20.1,1.5,17.2,23.2,96
canada_f1,12/16/91,66.4,16.4,30.95,92.29,96,5733594,2.6,2.2,0,6.3,96,17.5,0.9,15.9,18.8,96
canada_f1,12/17/91,31.3,19.5,11.81,71.44,96,2704374,3.6,2.7,0.2,7.6,96,19.9,1.8,17.7,24.5,96
canada_f1,12/18/91,23,12.3,8.55,44.88,96,1987974,3.9,1.5,1.8,6.5,96,23.8,1.8,21.8,28,96
canada_f1,12/19/91,24.3,13,8.55,57.06,96,2098818,3.4,1.9,0.8,8.3,96,26.3,1.2,24.2,29,96
canada_f1,12/20/91,5.6,3.7,1.98,18.26,96,483471,1.1,1.1,0,4,96,27,1.5,23.9,29.8,96
canada_f1,12/21/91,27.4,31.1,1.7,100.61,96,2368287,3.3,2.6,0,8.8,96,29.2,1.5,26.5,31.9,96
canada_f1,12/22/91,63.2,56.7,3.99,155.14,96,5459148,4.7,3.5,0,9.8,96,27.3,1.7,24.4,30,96
canada_f1,12/23/91,51.8,40.3,10.42,119.36,96,4472424,3.5,2.6,0.6,8.5,96,29,0.6,27.5,30.1,96
canada_f1,12/24/91,31.7,9,21.52,58.3,96,2737539,2.3,0.7,1,3.5,96,29.8,1.9,27.3,34.9,96
canada_f1,12/25/91,15.6,5.8,7.96,29.11,96,1343781,2.4,1.3,0.9,5,96,32.2,2.1,29.6,36.6,96
canada_f1,12/26/91,125.7,89.1,11.78,237.64,96,10858284,6.1,2.4,2.8,9.4,96,30.4,5.1,23.7,36.9,96
canada_f1,12/27/91,107.4,16.7,72.77,132.98,96,9283446,4.1,1.5,1.7,6.7,96,25,1.9,22.1,27.4,96
canada_f1,12/28/91,71.7,30.9,32.85,131.45,96,6191307,4.2,2.4,1.1,9.8,96,27.4,1.1,25.6,29,96
canada_f1,12/29/91,148.4,84.7,34.77,247.09,96,12818664,5.7,2.8,1.8,9.6,96,25.9,3,21.7,29.5,96
canada_f1,12/30/91,188.1,51.5,119.36,260.57,96,16249437,4.5,2.2,1.5,7.6,96,23.7,2,21.2,28.5,96
canada_f1,12/31/91,134.2,14.7,113.47,166.64,96,11594115,3.6,1.9,0.6,7.5,96,27.1,1.6,23.9,29.3,96
canada_f1,1/1/92,74.1,14,57.17,112.02,96,6401466,2.6,0.8,1.5,4.2,96,30.1,2.7,26.6,35.5,96
canada_f1,1/2/92,137.5,74.2,36.73,233.87,96,11880000,4.8,2.3,1.7,8,96,29.1,4.5,23.1,36,96
canada_f1,1/3/92,97.7,15.1,64.19,125.36,96,8438121,3.2,1.3,1.2,5.7,96,25.1,1.8,22.3,27.7,96
canada_f1,1/4/92,75.8,30.7,41.82,128.39,96,6549012,3.8,1.6,1.8,7.1,96,27.8,0.7,26.9,30.1,96
canada_f1,1/5/92,93,56.3,31.88,178.45,96,8032833,5.1,2.5,1.7,9.3,96,27,1.6,24.7,29.5,96
canada_f1,1/6/92,119.8,43,34.77,185.31,96,10352790,4.8,2.1,0.3,7.8,96,26.1,1.5,23.5,29.5,96
canada_f1,1/7/92,113.4,71.7,18.32,219.09,96,9798813,4.3,3.2,0,9.2,96,28.5,2.6,24.1,33.6,96
canada_f1,1/8/92,46,20.7,13.88,93.7,96,3970350,1.9,1,0.1,3.9,96,27.8,1,26,29.3,96
canada_f1,1/9/92,16.9,11.4,5.8,44.97,96,1456965,2.3,2.4,0,6.8,96,33.1,1.9,29.3,36,96
canada_f1,1/10/92,17,14.6,4.39,49.3,96,1468674,3.3,2.5,0,7.3,96,37.9,3.4,33.6,47.8,96
canada_f1,1/11/92,9.7,6.4,2.55,28.23,96,836919,1.6,1.2,0,5.4,96,41,2.2,36.8,47,96
canada_f1,1/12/92,2.6,0.5,1.98,3.99,96,222300,1.4,1.3,0,3.7,96,42.7,4.4,33.7,49.5,96
canada_f1,1/13/92,8.1,7.7,1.7,23.98,96,701424,3,2.3,0.1,6.6,96,44.3,4.4,38.2,51.5,96
canada_f1,1/14/92,31.7,32.9,2.55,89.65,96,2739249,3.8,2.6,0.5,7.7,96,38.1,2.7,32.8,43.1,96
canada_f1,1/15/92,44.3,40.6,5.8,117.88,96,3825918,3.3,2.7,0,7.6,96,34.4,3.7,28.7,40.3,96
canada_f1,1/16/92,45,43.3,3.6,119.36,96,3891762,3.5,3.3,0,8.7,96,32.9,3.5,28.2,39.4,96
canada_f1,1/17/92,12.6,9.9,3.2,31.88,96,1091745,2.7,2.7,0,7.3,96,34.1,2.2,28.8,36.8,96
canada_f1,1/18/92,10.2,6.2,3.6,23.13,96,885492,2.7,1.1,0.7,4.9,96,37.7,1.8,35.7,41.1,96
canada_f1,1/19/92,8,5.2,2.83,19.91,96,694341,2.3,2.1,0,6.4,96,38,1.6,34.7,40.4,96
canada_f1,1/20/92,3.8,1.7,2.27,9.15,96,326673,1.8,1,0.3,4,96,39.2,1,37.8,41.6,96
canada_f1,1/21/92,5.1,4.6,1.7,14.58,96,436392,2.8,2.1,0.1,6.2,96,42.4,1.8,40.2,46,96
canada_f1,1/22/92,18.7,18.5,2.55,56.01,96,1618038,3.4,2.6,0.1,8.2,96,40.6,4,35.1,46.7,96
canada_f1,1/23/92,6.5,5.2,2.27,23.13,96,558954,1.2,0.8,0,2.7,96,38.5,1.4,36.7,42.4,96
canada_f1,1/24/92,2.3,,2.27,2.27,1,2043,0,,0,0,1,42.4,,42.4,42.4,1
canada_f1,11/20/93,,,,,0,,0.4,0.2,0,0.6,29,67.2,4.7,60.9,80.6,29
canada_f1,11/21/93,,,,,0,,0,0,0,0.1,12,24.8,2.3,23,30.6,12
canada_f1,11/22/93,,,,,0,,1.5,0.9,0,2.7,46,42.2,2.6,36.6,47,46
canada_f1,11/23/93,8.6,5,2.18,19.09,95,735777,1.8,1.8,0.5,5.1,96,42.6,6.3,35.1,54.2,96
canada_f1,11/24/93,2.2,0.7,0.88,3.4,96,193842,0.7,0.2,0.5,1.2,96,41.2,5.3,33.6,51.2,96
canada_f1,11/25/93,1.2,0.7,0.23,2.97,96,104733,0.8,0.4,0.5,2.1,96,42.5,7.6,33.1,56.8,96
canada_f1,11/26/93,2.6,1.2,0.4,4.79,96,227898,0.7,0.2,0.5,1.2,96,37.3,5.7,30.2,48.8,96
canada_f1,11/27/93,2,0.3,1.81,2.97,18,32724,0.6,0.1,0.5,0.9,96,37.5,5.3,24.9,43.7,96
canada_f1,11/28/93,,,,,0,,0.8,0.2,0.5,1.4,96,31.2,3.5,22.4,38.5,96
canada_f1,11/29/93,6.1,2.5,2.58,11.75,89,485424,0.6,0.2,0.4,1.4,96,24.5,6.3,12.6,36.6,96
canada_f1,11/30/93,2.8,1.1,1.16,6.31,96,241569,0.5,0.2,0.4,1.1,96,35.6,5.3,28.3,44.7,96
canada_f1,12/1/93,2.4,0.8,0.88,5.27,96,207288,0.7,0.4,0.3,1.7,96,34,3.7,27.9,39.6,96
canada_f1,12/2/93,4.6,3.2,0.88,11.07,96,396180,1.3,1.3,0.4,4.7,96,34.9,3.9,27.6,41.8,96
canada_f1,12/3/93,6.1,6.1,0.88,19.09,96,524934,1.3,1.5,0.4,4.6,96,34.7,3.8,29.1,41.6,96
canada_f1,12/4/93,1.1,0.7,0.4,3.85,96,99144,0.7,0.2,0.4,1.4,96,37.3,6.6,25.6,47,96
canada_f1,12/5/93,2.7,2.3,0.23,7.99,96,231246,1,0.8,0.4,3.3,96,38.9,5.4,30.4,50,96
canada_f1,12/6/93,5.2,3.7,0.62,13.08,96,446544,0.9,0.8,0.3,3.1,96,34,6.4,24.9,46.4,96
canada_f1,12/7/93,3.4,2.9,0.88,11.07,96,290745,0.8,0.8,0.4,4.5,96,34,4.7,27,40.9,96
canada_f1,12/8/93,1.3,0.6,0.88,3.4,96,109215,0.8,0.3,0.4,1.7,96,36.1,1.9,32.5,39.5,96
canada_f1,12/9/93,4,3.7,0.4,11.07,96,344034,1.4,1.2,0.4,4.4,96,36.4,7.9,27.8,52.3,96
canada_f1,12/10/93,7.5,7.5,1.16,22.31,96,650898,1.9,2.1,0.4,6,96,31.1,3.4,25.4,37.4,96
canada_f1,12/11/93,5.4,4.7,1.16,15.23,96,470529,2.1,1.9,0.4,6.2,96,35.1,1.5,32,37.9,96
canada_f1,12/12/93,6.1,7,0.88,22.31,96,529191,2,2.1,0.4,6.9,96,31.6,2.5,27.5,35.7,96
canada_f1,12/13/93,1.2,0.5,0.62,2.97,96,106263,0.5,0.2,0.4,0.9,96,32.7,4.6,25.5,39.4,96
canada_f1,12/14/93,4.2,4.6,0.4,15.23,96,361620,1.6,1.2,0.4,4.6,96,32.8,2.2,30.1,37.3,96
canada_f1,12/15/93,17.7,17.1,1.16,43.83,96,1531827,3.5,2.7,0.4,7.4,96,34.4,3.9,30.5,43.4,96
canada_f1,12/16/93,24,18.9,1.81,58.25,96,2073105,2.8,2.4,0.4,7,96,44.1,8.9,32,65.1,96
canada_f1,12/17/93,24.2,19.5,1.81,61.73,96,2088252,3.1,2.7,0.4,8.4,96,39.1,5.3,30.9,47.5,96
canada_f1,12/18/93,5.3,4.3,1.47,19.09,96,460197,0.6,0.2,0.4,1.2,96,41.7,1.7,39.2,44.9,96
canada_f1,12/19/93,10.2,8.9,0.62,25.66,96,877041,3.5,2.7,0.4,8.2,96,37.1,4.8,31.1,47.1,96
canada_f1,12/20/93,3.9,2.5,1.16,10.45,96,337599,1.9,0.7,0.4,2.9,96,38.5,1,37.2,40.1,96
canada_f1,12/21/93,0.5,0.2,0.23,1.16,96,43659,1.7,1,0.4,3.5,96,45.2,3.9,37,49.9,96
canada_f1,12/22/93,0.5,0.3,0.23,0.88,96,44325,1.1,0.3,0.7,1.7,96,47.3,3.1,43.4,53,96
canada_f1,12/23/93,4.9,6.4,0.62,25.66,96,420687,1.5,0.8,0.6,2.9,96,40.4,6.6,30.7,50,96
canada_f1,12/24/93,13,13.1,0.88,35.68,96,1121706,3.9,3.2,0.4,8.8,96,36,3.7,29.4,41.9,96
canada_f1,12/25/93,19.6,18.9,1.47,57.12,96,1696122,4.2,3.3,0,9.3,96,36.2,3.6,29,40.8,96
canada_f1,12/26/93,14.6,12.4,1.81,41.71,96,1260126,3.4,2.7,0.1,8.4,96,36.1,3.5,29,40.4,96
canada_f1,12/27/93,20.1,20.8,1.16,60.57,96,1737117,4.1,3.4,0,8.8,96,34.9,3,28.8,38.5,96
canada_f1,12/28/93,6.2,2.9,2.18,11.75,96,533178,2.3,1.7,0,5.8,96,35.4,1.6,32.5,38.1,96
canada_f1,12/29/93,4.4,3.1,0.88,9.17,96,377721,2.9,2.2,0,5.5,96,35.9,2.1,32.4,39.5,96
canada_f1,12/30/93,22.9,23.6,0.62,65.38,96,1975095,4.3,2.8,0.6,8.8,96,35,3.3,28.9,38.5,96
canada_f1,12/31/93,25.7,22.9,2.58,69.09,96,2219247,4.1,3,0,8.3,96,34.3,2.5,29.1,37.9,96
canada_f1,1/1/94,40,34.5,4.3,106.19,96,3453138,5,3.1,0.2,9.8,96,34.3,2.3,30,37.4,96
canada_f1,1/2/94,75.1,50.7,15.97,157.67,96,6492510,6.1,2.6,2.2,10.7,96,32.3,2.3,28.2,35.8,96
canada_f1,1/3/94,52.1,16.5,30.92,78.3,96,4503195,4.9,1.7,2.1,7.1,96,30.8,1.4,28.7,33.3,96
canada_f1,1/4/94,70,41.8,23.98,135.55,96,6045561,5.7,2.6,1.9,8.8,96,31.9,1.7,28.7,34.3,96
canada_f1,1/5/94,93,46.5,41.71,167.86,96,8039079,5.8,2.5,1.9,9.1,96,31.1,2.6,27.6,35,96
canada_f1,1/6/94,96.8,32,59.41,154.44,96,8365320,5.2,2.2,1.9,8.5,96,29.9,1.9,27.1,33.2,96
canada_f1,1/7/94,94.7,37.4,54.85,160.92,96,8182890,4.9,2.7,1.2,8.9,96,29.1,2.5,25.4,32.9,96
canada_f1,1/8/94,81.6,30.9,44.91,135.55,96,7053966,4.7,2.9,0.5,8.6,96,28.3,1.8,25.6,31.1,96
canada_f1,1/9/94,71.9,28.2,39.64,121.56,96,6208065,5,3,0.4,9.1,96,28.1,2.1,25.1,31.3,96
canada_f1,1/10/94,99,50.2,40.69,179.08,96,8552007,5.4,3,1.5,9.8,96,26.2,2.1,23.1,29.2,96
canada_f1,1/11/94,80,24.2,50.4,126.97,96,6908247,4.2,2.7,0.5,8.4,96,26.4,1.7,23.7,29.6,96
canada_f1,1/12/94,69.9,33.7,36.67,129.75,96,6035346,4.1,2.8,0.3,8.5,96,27.4,2.9,23.7,31.6,96
canada_f1,1/13/94,59.9,31.4,30.92,132.52,96,5174775,4.1,3.3,0,11.7,96,27.2,2.1,23.4,30.6,96
canada_f1,1/14/94,26.3,4.2,16.74,34.72,96,2268720,2.7,1.7,0,5.5,96,30.6,1.2,27.9,32.7,96
canada_f1,1/15/94,23,15.5,9.17,52.61,96,1990053,4.2,3.2,0.1,9.9,96,30.9,1.7,27.9,33.5,96
canada_f1,1/16/94,12.1,7,5.27,33.75,96,1045845,2.5,1.6,0,5.2,96,30.1,0.9,28.8,33,96
canada_f1,1/17/94,6,3.3,1.81,12.4,96,515160,3.9,2.9,0,8.8,96,32.3,1.6,29.9,35.1,96
canada_f1,1/18/94,39,39.7,1.81,108.68,96,3368493,5.2,3.5,0.3,10.5,96,29.9,4,24.4,35.2,96
canada_f1,1/19/94,31.4,23.4,9.17,79.85,96,2714031,4,2.3,0.6,7.8,96,29.1,2.7,25.2,33.1,96
canada_f1,1/20/94,3.8,1.6,2.18,9.17,96,326781,2.4,2.1,0,7.2,96,31.2,2.1,28.2,35.7,96
canada_f1,1/21/94,12.9,14.6,0.4,44.91,96,1118484,2.9,2.8,0,8.2,96,32.7,4,27.6,38.6,96
canada_f1,1/22/94,6.1,5,1.16,17.5,96,523215,2.2,2.4,0,7,96,32.2,1.8,29.8,35.8,96
canada_f1,1/23/94,23.8,27.4,0.4,84.67,96,2059083,3.5,3.3,0,10.3,96,32.7,2.9,28.6,39.1,96
canada_f1,1/24/94,5.2,2.3,2.18,15.23,96,453375,2.2,2.3,0,6.2,96,35.6,2.8,29.6,39.8,96
canada_f1,1/25/94,6.6,6.4,1.16,19.88,96,573912,2.3,2.8,0,8.9,96,39.8,2.4,35.9,43.7,96
canada_f1,1/26/94,2.4,1.1,0.88,4.3,96,208026,1.2,1.4,0,4.7,96,44.7,3.6,34.9,48.7,96
canada_f1,1/27/94,18.4,22.3,0.4,64.17,96,1586808,3,3.1,0,8.2,96,45.3,5.1,38.7,52.5,96
canada_f1,1/28/94,6.4,3.9,2.18,15.97,96,556542,2.2,2.7,0,8.8,96,43.1,2.5,39.5,47.5,96
canada_f1,1/29/94,1,0.9,0.23,3.4,96,87399,0.3,0.2,0,0.7,96,48.8,1.3,44.8,50.7,96
canada_f1,1/30/94,0.4,1,0.08,4.79,62,24057,0.8,0.4,0.2,1.6,62,51.1,2.8,45.9,56.8,62
canada_f1,1/31/94,1.4,1.8,0.08,6.31,75,94617,0.4,0.5,0,2.3,75,49.6,6.2,39.5,59.1,75
canada_f1,2/1/94,0.2,0.2,0.08,0.62,72,14940,0.4,0.3,0,0.9,72,50.4,4.5,44.3,58.5,72
canada_f1,2/2/94,0.2,0.2,0.08,0.62,34,5220,0.8,0.6,0,1.7,34,45.3,4,39.2,50,34
canada_f1,2/3/94,0.2,0.1,0.08,0.23,12,2079,0.7,0.2,0.3,1,12,42.4,2.6,40,49.3,12
canada_f1,12/10/94,2.8,0.2,2.61,2.94,2,4995,0,0,0,0,2,20.8,3.5,18.3,23.2,2
canada_f1,12/11/94,6.4,4.2,1.13,13.54,96,555714,1.5,1.9,0,5.5,96,29.1,7.4,12.5,51.7,96
canada_f1,12/12/94,9.9,8.1,2.61,26.53,96,857214,2.9,2.5,0,7.1,96,33.4,2.4,29,37.2,96
canada_f1,12/13/94,8.9,4.4,3.65,16,96,767160,2.8,2.1,0,6,96,30.4,1.8,27.1,33.9,96
canada_f1,12/14/94,3,1.9,1.13,8.55,96,257427,1,1,0,2.7,96,31.6,0.7,30.2,33.5,96
canada_f1,12/15/94,5.9,6.1,0.28,16,96,510552,1.9,1.9,0,6,96,31.6,2.8,26.8,34.9,96
canada_f1,12/16/94,3.7,1.6,1.84,7.56,96,320778,2,1.5,0,4.4,96,32.4,0.8,31.1,34,96
canada_f1,12/17/94,0.9,0.8,0.14,2.94,96,77841,0.3,0.4,0,1.2,96,32.4,0.7,31.5,33.8,96
canada_f1,12/18/94,0.1,0.1,0.03,0.28,96,11718,0.1,0.2,0,0.9,96,34.2,0.5,33,35.1,96
canada_f1,12/19/94,10.7,12.7,0.06,36.39,96,926370,2.5,3.1,0,8.1,96,32.8,4.1,25.2,37.2,96
canada_f1,12/20/94,7.9,4.9,2.94,18.6,96,682407,1.8,2.1,0,6.4,96,30.9,1.6,27.6,32.9,96
canada_f1,12/21/94,1.2,0.9,0.14,4.45,96,103599,0.5,0.7,0,1.8,96,31.7,1.8,28.6,35.5,96
canada_f1,12/22/94,0.1,0.1,0.06,0.48,96,10584,1.1,1.2,0,3.5,96,35.5,2,31.8,38,96
canada_f1,12/23/94,0.5,0.8,0.03,2.61,96,42012,1.3,1.6,0,5.9,96,36.8,2.3,32.3,39.7,96
canada_f1,12/24/94,3.5,4.1,0.06,12.37,96,302661,0.9,1.3,0,4.3,96,34.2,3.9,28.2,39.5,96
canada_f1,12/25/94,2.2,1.6,0.28,5.27,96,190071,0.7,1,0,2.6,96,32,1.1,29.4,34.2,96
canada_f1,12/26/94,4.3,4.9,0.06,13.54,96,374616,2.2,2.6,0,7.3,96,32.2,3.1,28.3,36.9,96
canada_f1,12/27/94,7.4,7.5,0.48,21.35,96,638712,2.9,2.9,0,8.4,96,30,2,25.8,31.9,96
canada_f1,12/28/94,2.9,1.4,1.13,7.08,96,251775,1.5,1.6,0,4.9,96,33,1,30.6,35.2,96
canada_f1,12/29/94,4.3,4.1,0.28,11.78,96,369963,2.5,2.4,0,6.8,96,35.7,1.6,32.6,37.5,96
canada_f1,12/30/94,19.4,19.8,1.47,60.88,96,1672002,4.1,3.6,0,11,96,32.3,2.8,27.8,35.9,96
canada_f1,12/31/94,4.5,2.8,2.27,12.94,96,393102,1.7,1.1,0,3.9,96,35.6,1.9,32.5,39.7,96
canada_f1,1/1/95,22.4,23.4,0.76,66.52,96,1936035,4.2,3.4,0,9.4,96,35,4.3,28.3,42.2,96
canada_f1,1/2/95,33.2,25.5,8.04,78.64,96,2870289,4.7,3.3,0.3,9.2,96,37,4.6,30.5,44.7,96
canada_f1,1/3/95,11,4.1,2.94,19.96,96,946737,0.7,0.5,0.2,2.1,96,37.5,2.1,32,40.3,96
canada_f1,1/4/95,2.7,1.6,0.76,5.69,96,230859,2.4,2.1,0.5,6.4,96,38.1,3.6,30,42.3,96
canada_f1,1/5/95,6.6,6.6,0.48,18.6,96,570132,3.7,2.7,0.6,8.5,96,38.7,2.5,34.8,41.4,96
canada_f1,1/6/95,3.6,1.3,1.84,6.14,96,308187,2.6,1.7,0.6,6.2,96,38.8,1,35.8,40.8,96
canada_f1,1/7/95,11.5,12.8,0.76,36.39,96,997587,4.9,3.5,0.6,10.3,96,41,2.1,35.1,45.2,96
canada_f1,1/8/95,24.6,22.5,2.94,69.6,96,2123082,6.1,2.8,1.8,9.9,96,43.8,3.2,37.5,47.2,96
canada_f1,1/9/95,31.6,25.3,6.14,76.46,96,2727063,6.3,2.7,2,9.5,96,42.1,4.9,34.8,47.7,96
canada_f1,1/10/95,29.9,18.9,10.68,65.07,96,2581029,5.6,2.6,1.3,8.8,96,39.9,5,32.2,45.4,96
canada_f1,1/11/95,23,12.5,9.6,46.38,96,1983798,4.8,2.3,0.9,7.7,96,35.2,1,33.3,36.7,96
canada_f1,1/12/95,7,4,1.47,17.95,96,608706,1.7,1.1,0.4,4.5,96,33.3,0.7,32.1,34.5,96
canada_f1,1/13/95,0.8,0.5,0.28,2.27,96,67932,1.3,1.2,0.3,3.6,96,30.7,1,29,32.3,96
canada_f1,1/14/95,2.5,2.7,0.14,8.04,96,212004,3.6,2.8,0.4,8.4,96,31.5,3.4,26.9,38.7,96
canada_f1,1/15/95,5.1,5.1,0.28,16,96,440649,3.5,2.5,0.5,8.2,96,29.5,3.1,24.6,34.3,96
canada_f1,1/16/95,4.6,4.3,0.48,12.94,96,396369,3.7,2.8,0.5,8.5,96,28.2,2.6,23.9,32.7,96
canada_f1,1/17/95,8.5,7.8,1.13,22.77,96,730737,3.9,2.9,0.4,8,96,28.1,2.5,23.1,31.7,96
canada_f1,1/18/95,5.8,4.9,0.76,16.65,96,501966,3.3,2.6,0.5,8.5,96,29.3,2.9,24.4,34.2,96
canada_f1,1/19/95,1.4,0.6,0.76,4.05,96,117432,2.4,1.9,0.4,5.9,96,30.6,2.3,26.6,34.4,96
canada_f1,1/20/95,5.7,6.7,0.14,18.6,96,494712,3.8,2.7,0.4,7.6,96,31.1,4.2,25.5,37.1,96
canada_f1,1/21/95,10.4,10.4,0.48,29.7,96,898929,3.6,2.7,0.4,7.8,96,29.3,3.5,23.7,34.6,96
canada_f1,1/22/95,9.6,8.1,1.13,24.24,96,832392,3.1,2.3,0.4,7.1,96,29.6,3.1,24,34.3,96
canada_f1,1/23/95,9.4,8.4,1.47,28.09,96,813771,2.3,2.4,0,7.2,96,29.8,2.7,25,33.8,96
canada_f1,1/24/95,3.6,2.8,0.48,10.14,96,313227,0.9,1.2,0,4,96,30.9,3.3,25,36,96
canada_f1,1/25/95,7.2,8.7,0.14,25,96,617877,2.4,2.7,0,7.8,96,31.1,5.2,24,39,96
canada_f1,1/26/95,1.8,0.9,0.76,4.84,96,152559,1.4,1.6,0,4.7,96,30.9,2.3,26,35,96
canada_f1,1/27/95,7,7.9,0.14,22.77,96,608265,2.5,2.6,0,6.9,96,30.9,4.7,25,38,96
canada_f1,1/28/95,1.1,1.1,0.06,4.84,96,92448,0.5,0.6,0,2.8,96,32.1,2,29,37,96
canada_f1,1/29/95,5.6,6.9,0.03,19.28,96,483426,2.1,1.9,0,5.3,96,33.6,6.6,25,43,96
canada_f1,1/30/95,8.9,9.5,0.48,27.3,96,765693,2.2,2.5,0,6.4,96,29.9,4.8,23,39,96
canada_f1,1/31/95,6.8,6.4,0.76,19.28,96,590832,1.8,2,0,5.5,96,29.3,3.8,24,36,96
canada_f1,2/1/95,7.4,8.7,0.14,24.24,96,638190,1.2,1.4,0,3.7,96,32.1,6.3,23,40,96
canada_f1,2/2/95,14,15.8,0.06,43.58,96,1210257,1.8,2.1,0,6,96,31.8,6.6,23,53,96
canada_f1,2/3/95,14.2,12.7,1.13,39.02,96,1224729,2.1,2.4,0,6.4,96,28.6,3.1,24,34,96
canada_f1,2/4/95,5.1,3,0.76,11.24,96,444348,1,1.4,0,3.8,96,29,2.3,24,33,96
canada_f1,2/5/95,3.3,5.1,0,23.5,89,268146,0.1,0.2,0,0.8,89,34,6.3,25,53,89
canada_f1,2/6/95,5.8,5,0.03,18.6,53,277344,0.8,1.5,0,4.3,53,31,9.2,22,48,53
canada_f1,2/7/95,2.1,1.7,0.14,6.14,96,184185,0,0,0,0.1,96,33.4,8.5,23,49,96
canada_f1,2/8/95,5,5.7,0.14,15.38,96,430389,0.3,0.5,0,1.8,96,31.3,7.6,21,43,96
canada_f1,2/9/95,3.3,2.8,0.28,9.6,96,288801,0.2,0.2,0,0.9,96,30.6,6.1,22,41,96